MITEE-1 (47314 NORAD) Tracking and Keplerian Element Data
This shows tracking and keplerian element data for the satellite.
Feedback or suggestion? Click here.
Element | Value |
Catalog | 47314 |
Name | MITEE-1 |
Epoch Orbit | 635 |
Epoch Day | 59.76332752 |
Epoch Year | 2021 |
RAAN | 337.6768 |
Inclination | 60.6879 |
Eccentricity | 0.0016376 |
Argument of Perigee | 318.0363 |
Mean Anonmoly | 41.9468 |
Mean Motion | 15.22487381 |
Decay Rate | 2.589E-05 |
L1 | 1 47314U 21002F 21059.76332752 .00002589 00000-0 12223-3 0 9993 |
L2 | 2 47314 60.6879 337.6768 0016376 318.0363 41.9468 15.22487381 6351 |
Live tracking and technical data element details for MITEE-1 (NORAD 47314). MITEE-1 can be tracked NOW for your location showing map with azimuth and elevation plus other details from your city location.
Track the satellite on the map from your city or location and see movement details for azimuth, elevation, latitude, longitude, range, height, and movement on the map or in text.
IsCatalogInMostPopularTable: catalog: 47314, numindb: 10
Update: records affected: 1
GetName: 47314 MITEE-1
Hit Count: updated at: Mon, 01 Mar 2021 22:28:17 GMT